N5CSC Weather Reports


Display with metric or nautical units.
time (UTC)temp
F
wind
direction
speed
MPH
gust
MPH
rain 1hr
in
rain 24hr
in
rain mn
in
humidity
%
barometer
mb
20220520074508 76 169 4.0 10.0 0.00 0.00 0.00 74 1001.9
20220520073006 76 221 5.0 9.0 0.00 0.00 0.00 74 1002.0
20220520071509 76 165 4.0 18.0 0.00 0.00 0.00 75 1002.2
20220520070002 76 132 4.0 8.0 0.00 0.00 0.00 76 1002.3
20220520064501 76 171 4.0 10.0 0.00 0.00 0.00 76 1002.4
20220520063101 76 183 4.0 9.0 0.00 0.00 0.00 76 1002.5
20220520061603 76 161 4.0 9.0 0.00 0.00 0.00 76 1002.6
20220520060057 76 148 3.0 7.0 0.00 0.00 0.00 76 1002.9
20220520054600 76 153 3.0 9.0 0.00 0.00 0.00 76 1003.0
20220520053052 77 156 3.0 11.0 0.00 0.00 0.00 76 1002.9
20220520051550 77 153 3.0 8.0 0.00 0.00 0.00 75 1003.0
20220520050048 77 157 4.0 9.0 0.00 0.00 0.00 75 1003.1
20220520044546 77 136 3.0 9.0 0.00 0.00 0.00 74 1003.5
20220520043055 77 158 4.0 8.0 0.00 0.00 0.00 73 1003.3
20220520041553 78 172 5.0 9.0 0.00 0.00 0.00 73 1003.4
20220520040047 78 132 3.0 7.0 0.00 0.00 0.00 72 1003.6
20220520034544 78 161 4.0 10.0 0.00 0.00 0.00 71 1003.5
20220520033050 79 169 3.0 12.0 0.00 0.00 0.00 69 1003.5
20220520031543 79 126 4.0 9.0 0.00 0.00 0.00 68 1003.4
20220520030043 80 169 6.0 11.0 0.00 0.00 0.00 66 1003.3
20220520024543 81 164 4.0 10.0 0.00 0.00 0.00 64 1003.3
20220520023041 81 174 5.0 11.0 0.00 0.00 0.00 63 1003.0
20220520021541 82 148 4.0 16.0 0.00 0.00 0.00 62 1002.6
20220520020041 83 155 5.0 10.0 0.00 0.00 0.00 60 1002.4
20220520014644 83 146 5.0 11.0 0.00 0.00 0.00 59 1002.3
20220520013100 84 169 5.0 9.0 0.00 0.00 0.00 57 1002.2
20220520011539 85 165 4.0 8.0 0.00 0.00 0.00 55 1002.0
20220520010041 86 159 3.0 10.0 0.00 0.00 0.00 52 1001.8
20220520004538 87 170 4.0 10.0 0.00 0.00 0.00 50 1001.7
20220520003036 88 136 3.0 11.0 0.00 0.00 0.00 48 1001.7
20220520001542 89 127 4.0 9.0 0.00 0.00 0.00 46 1001.6
20220520000045 90 162 6.0 13.0 0.00 0.00 0.00 43 1001.5
20220519234535 91 146 7.0 15.0 0.00 0.00 0.00 41 1001.6
20220519233040 92 132 6.0 15.0 0.00 0.00 0.00 40 1001.5
20220519231537 93 164 6.0 14.0 0.00 0.00 0.00 38 1001.4
20220519230035 94 149 5.0 12.0 0.00 0.00 0.00 36 1001.3
20220519224539 95 152 6.0 12.0 0.00 0.00 0.00 35 1001.5
20220519223035 96 123 4.0 10.0 0.00 0.00 0.00 33 1001.5
20220519221535 97 155 5.0 11.0 0.00 0.00 0.00 31 1001.6
20220519220031 97 147 6.0 15.0 0.00 0.00 0.00 29 1001.9
20220519214527 98 163 5.0 13.0 0.00 0.00 0.00 28 1002.0
20220519213029 98 180 5.0 10.0 0.00 0.00 0.00 28 1002.1
20220519211519 98 169 5.0 13.0 0.00 0.00 0.00 28 1002.5
20220519210020 98 166 5.0 15.0 0.00 0.00 0.00 28 1002.7
20220519204513 97 156 3.0 14.0 0.00 0.00 0.00 29 1002.9
20220519203010 97 153 5.0 12.0 0.00 0.00 0.00 28 1003.3
20220519201510 97 172 5.0 14.0 0.00 0.00 0.00 27 1003.4
20220519200009 97 144 5.0 17.0 0.00 0.00 0.00 28 1003.7
20220519194504 96 154 5.0 10.0 0.00 0.00 0.00 28 1004.0
20220519193002 96 144 5.0 10.0 0.00 0.00 0.00 28 1004.2
20220519191620 96 178 3.0 11.0 0.00 0.00 0.00 29 1004.3
20220519190055 94 189 6.0 12.0 0.00 0.00 0.00 33 1004.7
20220519184556 94 129 4.0 11.0 0.00 0.00 0.00 32 1004.9
20220519183102 93 188 5.0 13.0 0.00 0.00 0.00 34 1005.2
20220519181546 93 149 3.0 9.0 0.00 0.00 0.00 35 1005.4
20220519180043 92 146 4.0 9.0 0.00 0.00 0.00 37 1005.8
20220519174544 92 134 4.0 13.0 0.00 0.00 0.00 38 1006.2
20220519173040 90 192 5.0 11.0 0.00 0.00 0.00 39 1006.6
20220519171536 90 153 3.0 9.0 0.00 0.00 0.00 42 1006.7
20220519170031 89 158 5.0 11.0 0.00 0.00 0.00 42 1006.8
20220519164527 88 103 5.0 9.0 0.00 0.00 0.00 44 1007.0
20220519163024 87 169 3.0 10.0 0.00 0.00 0.00 48 1007.2
20220519161519 86 153 6.0 10.0 0.00 0.00 0.00 50 1007.5
20220519160024 85 242 3.0 11.0 0.00 0.00 0.00 54 1007.8
20220519154513 84 182 3.0 7.0 0.00 0.00 0.00 57 1007.9
20220519153009 82 159 4.0 9.0 0.00 0.00 0.00 60 1008.1
20220519151507 82 181 4.0 8.0 0.00 0.00 0.00 60 1008.3
20220519150003 80 201 4.0 10.0 0.00 0.00 0.00 62 1008.4
20220519144600 79 192 4.0 10.0 0.00 0.00 0.00 65 1008.5
20220519143056 77 165 3.0 8.0 0.00 0.00 0.00 69 1008.7
20220519141554 77 185 3.0 9.0 0.00 0.00 0.00 70 1008.8
20220519140056 77 177 3.0 7.0 0.00 0.00 0.00 72 1008.8
20220519134559 75 178 4.0 9.0 0.00 0.00 0.00 75 1008.7
20220519133050 74 197 4.0 10.0 0.00 0.00 0.00 76 1008.8
20220519131549 74 175 2.0 6.0 0.00 0.00 0.00 79 1008.7
20220519130051 73 180 2.0 5.0 0.00 0.00 0.00 79 1008.7
20220519124554 73 173 1.0 4.0 0.00 0.00 0.00 80 1008.6
20220519123054 73 178 0.0 2.0 0.00 0.00 0.00 80 1008.5
20220519121553 73 186 1.0 4.0 0.00 0.00 0.00 80 1008.4
20220519120047 73 177 1.0 5.0 0.00 0.00 0.00 80 1008.1
20220519114600 73 185 3.0 6.0 0.00 0.00 0.00 80 1007.9
20220519113048 72 180 2.0 6.0 0.00 0.00 0.00 80 1007.8
20220519111545 72 198 3.0 7.0 0.00 0.00 0.00 81 1007.8
20220519110045 72 166 0.0 4.0 0.00 0.00 0.00 81 1007.7
20220519104544 72 180 1.0 6.0 0.00 0.00 0.00 81 1007.6
20220519103043 72 184 1.0 6.0 0.00 0.00 0.00 81 1007.6
20220519101550 72 196 2.0 6.0 0.00 0.00 0.00 81 1007.8
20220519100045 72 188 2.0 7.0 0.00 0.00 0.00 81 1007.8
20220519094540 72 180 2.0 7.0 0.00 0.00 0.00 81 1007.9
20220519093041 72 174 1.0 5.0 0.00 0.00 0.00 81 1007.7
20220519091539 72 182 1.0 4.0 0.00 0.00 0.00 80 1007.7
20220519090037 73 161 1.0 3.0 0.00 0.00 0.00 80 1007.8
20220519084537 73 162 2.0 5.0 0.00 0.00 0.00 80 1007.7
20220519083035 73 169 2.0 5.0 0.00 0.00 0.00 79 1007.9
20220519081537 73 177 2.0 9.0 0.00 0.00 0.00 79 1008.0
20220519080039 74 186 2.0 7.0 0.00 0.00 0.00 79 1008.1